This is the latest recevied weather packets stored in our database for station/object N8ESC. If no packets are shown the sender has not sent any weather packets the latest 10 day(s).
| Time | Temp. | Humidity | Pressure | Rain* | Wind** | Luminosity | Snow |
|---|---|---|---|---|---|---|---|
| 1777731340 | 6.11° C | 42% | 1016.5 hPa | 0 mm | - | 433 W/m² | - |
| 1777731038 | 6.11° C | 44% | 1016.3 hPa | 0 mm | - | 419 W/m² | - |
| 1777730737 | 6.11° C | 44% | 1016.5 hPa | 0 mm | - | 405 W/m² | - |
| 1777730432 | 5.56° C | 45% | 1016.6 hPa | 0 mm | - | 391 W/m² | - |
| 1777730128 | 5.56° C | 46% | 1016.5 hPa | 0 mm | - | 376 W/m² | - |
| 1777729825 | 5.56° C | 46% | 1016.8 hPa | 0 mm | - | 363 W/m² | - |
| 1777729522 | 5.56° C | 47% | 1016.7 hPa | 0 mm | - | 350 W/m² | - |
| 1777729219 | 5.56° C | 47% | 1016.7 hPa | 0 mm | - | 334 W/m² | - |
| 1777728915 | 5° C | 49% | 1016.8 hPa | 0 mm | - | 319 W/m² | - |
| 1777728612 | 5° C | 49% | 1016.8 hPa | 0 mm | - | 308 W/m² | - |
| 1777728309 | 5° C | 49% | 1017 hPa | 0 mm | - | 292 W/m² | - |
| 1777728006 | 4.44° C | 50% | 1016.9 hPa | 0 mm | - | 278 W/m² | - |
| 1777727703 | 4.44° C | 51% | 1017 hPa | 0 mm | - | 265 W/m² | - |
| 1777727400 | 4.44° C | 51% | 1016.9 hPa | 0 mm | - | 249 W/m² | - |
| 1777726795 | 3.89° C | 55% | 1016.9 hPa | 0 mm | - | 220 W/m² | - |
| 1777726492 | 3.33° C | 55% | 1017 hPa | 0 mm | - | 210 W/m² | - |
| 1777725583 | 2.78° C | 59% | 1017.1 hPa | 0 mm | - | 46 W/m² | - |
| 1777724977 | 2.22° C | 60% | 1017 hPa | 0 mm | - | 45 W/m² | - |
| 1777724673 | 1.67° C | 61% | 1016.9 hPa | 0 mm | - | 133 W/m² | - |
| 1777724372 | 1.67° C | 62% | 1017 hPa | 0 mm | - | 122 W/m² | - |
| 1777724068 | 1.11° C | 63% | 1017 hPa | 0 mm | - | 112 W/m² | - |
| 1777723766 | 1.11° C | 63% | 1017.1 hPa | 0 mm | - | 103 W/m² | - |
| 1777723462 | 0.56° C | 64% | 1017 hPa | 0 mm | - | 91 W/m² | - |
| 1777723159 | 0.56° C | 66% | 1017.1 hPa | 0 mm | - | 82 W/m² | - |
| 1777722249 | -0.56° C | 69% | 1017 hPa | 0 mm | - | 56 W/m² | - |
* Rain latest hour (hover to see other rain measurements)
** Current wind speed in m/s (hover to see current wind gust speed)